History for Miami, FL

Sunday, December 23, 2012 — View Current Conditions

Jump to Data:

Date:
Airport Code:
Recently Viewed Airport Codes: KMIA
Daily Summary
  Actual Average Record
Temperature
Mean Temperature 63°F 69°F  
Max Temperature 73°F 77°F 86°F (1897)
Min Temperature 52°F 62°F 37°F (1989)
Degree Days
Heating Degree Days 2 1  
Month to date heating degree days 12 19  
Since 1 July heating degree days 13 22  
Cooling Degree Days 0 6  
Month to date cooling degree days 202 158  
Year to date cooling degree days 4642 4530  
Growing Degree Days 12 (Base 50)    
Moisture
Dew Point 43°F    
Average Humidity 56    
Maximum Humidity 72    
Minimum Humidity 40    
Precipitation
Precipitation 0.00 in 0.07 in 1.40 in (1953)
Month to date precipitation 0.51 1.58  
Year to date precipitation 86.94 61.44  
Snow
Snow 0.00 in in in ()
Month to date snowfall 0.0  
Since 1 July snowfall 0.0  
Snow Depth 0.00 in    
Sea Level Pressure
Sea Level Pressure 30.19 in    
Wind
Wind Speed 5 mph (ENE)    
Max Wind Speed 14 mph    
Max Gust Speed 18 mph    
Visibility 10 miles    
Events      
T = Trace of Precipitation, MM = Missing Value Source: NWS Daily Summary

Show full METARS

(help) - Comma Delimited File

Hourly Observations

Time(EST) Temperature Dew Point Humidity Sea Level Pressure Visibility Wind Direction Wind Speed Gust Speed Precipitation Events Conditions
12:53 AM 53.1°F 33.1°F 47% 30.23 in 10.0 miles Calm Calm - N/A   Clear
1:53 AM 53.1°F 34.0°F 48% 30.22 in 10.0 miles NNW 3.5 mph - N/A   Clear
2:53 AM 53.1°F 34.0°F 48% 30.21 in 10.0 miles NW 3.5 mph - N/A   Clear
3:53 AM 53.1°F 34.0°F 48% 30.20 in 10.0 miles NNW 3.5 mph - N/A   Clear
4:53 AM 53.1°F 30.9°F 43% 30.19 in 10.0 miles Calm Calm - N/A   Clear
5:53 AM 52.0°F 32.0°F 47% 30.21 in 10.0 miles NNW 3.5 mph - N/A   Clear
6:53 AM 52.0°F 32.0°F 47% 30.21 in 10.0 miles Calm Calm - N/A   Scattered Clouds
7:53 AM 54.0°F 33.1°F 45% 30.23 in 10.0 miles North 3.5 mph - N/A   Scattered Clouds
8:53 AM 59.0°F 36.0°F 42% 30.24 in 10.0 miles North 6.9 mph - N/A   Scattered Clouds
9:53 AM 64.0°F 42.1°F 45% 30.25 in 10.0 miles North 4.6 mph - N/A   Mostly Cloudy
10:53 AM 68.0°F 48.0°F 49% 30.24 in 10.0 miles Variable 3.5 mph - N/A   Mostly Cloudy
11:53 AM 71.6°F 50.0°F 46% 30.21 in 10.0 miles East 11.5 mph - N/A   Mostly Cloudy
12:53 PM 72.0°F 50.0°F 46% 30.18 in 10.0 miles East 8.1 mph - N/A   Mostly Cloudy
1:53 PM 72.0°F 51.1°F 48% 30.16 in 10.0 miles East 12.7 mph 18.4 mph N/A   Mostly Cloudy
2:53 PM 71.1°F 48.9°F 45% 30.16 in 10.0 miles East 11.5 mph - N/A   Mostly Cloudy
3:53 PM 71.1°F 48.0°F 44% 30.15 in 10.0 miles ESE 10.4 mph - N/A   Mostly Cloudy
4:53 PM 69.1°F 48.0°F 47% 30.16 in 10.0 miles ESE 8.1 mph - N/A   Mostly Cloudy
5:53 PM 68.0°F 48.9°F 50% 30.16 in 10.0 miles ESE 5.8 mph - N/A   Mostly Cloudy
6:53 PM 66.9°F 51.1°F 57% 30.17 in 10.0 miles ESE 4.6 mph - N/A   Mostly Cloudy
7:53 PM 66.9°F 51.1°F 57% 30.17 in 10.0 miles SE 6.9 mph - N/A   Scattered Clouds
8:53 PM 64.0°F 51.1°F 63% 30.17 in 10.0 miles Calm Calm - N/A   Scattered Clouds
9:53 PM 62.1°F 51.1°F 67% 30.18 in 10.0 miles Calm Calm - N/A   Scattered Clouds
10:53 PM 61.0°F 52.0°F 72% 30.17 in 10.0 miles Calm Calm - N/A   Scattered Clouds
11:53 PM 63.0°F 53.1°F 70% 30.15 in 10.0 miles Calm Calm - N/A   Scattered Clouds